Theta_e
344 346 347 352 352 352 352 352 352 351 351 350 346 346 344 343 345 349 351 350 349 349 350 348 351 349 348 348 350 350 348 344 346 349 349 347 345 348 349 350 348 347 347
342 346 347 351 352 352 352 352 351 351 351 347 346 348 344 345 346 351 351 351 347 351 352 352 351 352 352 352 350 350 347 343 345 347 346 347 346 348 349 344 347 346 347
342 345 347 349 351 351 352 351 351 351 351 351 351 348 350 350 351 350 352 352 349 353 352 352 352 352 350 350 351 347 349 348 347 347 344 345 345 348 348 346 344 345 346
343 346 347 348 351 350 350 352 351 352 351 351 351 350 350 352 352 352 352 352 352 352 352 352 352 350 351 351 348 344 341 342 345 345 340 347 349 347 341 347 346 345 345
346 346 347 348 349 349 350 351 352 352 352 352 350 350 350 352 352 351 350 351 352 352 352 352 352 351 351 346 345 344 344 345 347 348 347 339 335 336 339 336 344 344 343
346 345 347 348 348 349 351 352 350 350 351 348 350 353 353 352 353 349 351 352 351 352 351 350 350 350 342 342 342 343 344 345 346 347 348 348 342 339 338 341 341 340 339
344 345 345 346 347 350 348 348 350 350 351 350 349 349 352 351 351 353 353 353 354 351 351 351 350 343 342 340 341 343 344 345 346 346 346 347 346 342 340 341 341 340 337
342 344 345 342 347 348 348 348 349 350 349 348 350 349 350 350 353 351 352 352 353 352 348 345 345 343 342 341 341 343 345 345 345 345 347 346 345 346 340 341 341 341 340
343 343 342 343 345 347 346 347 350 351 350 349 350 346 348 351 350 352 351 352 352 351 350 346 346 343 341 340 342 344 344 343 344 344 347 345 344 345 344 344 344 343 343
343 343 343 344 344 343 346 344 348 347 350 351 350 349 348 350 349 352 349 348 352 351 348 348 347 342 341 340 341 342 342 343 345 340 345 346 345 342 340 344 343 342 342
344 345 343 341 342 344 343 341 339 335 344 349 350 345 347 347 345 348 349 349 347 344 346 347 346 343 342 339 339 340 342 343 340 335 336 338 344 341 341 343 342 342 342
341 341 342 342 341 340 340 341 339 339 342 342 343 343 345 345 345 344 343 342 343 344 345 344 341 339 338 339 337 340 341 342 341 338 337 342 344 343 342 342 342 343 342
342 341 341 342 339 340 340 340 340 340 342 340 341 343 343 344 345 343 341 339 335 336 337 335 340 343 344 339 341 346 346 345 346 345 342 338 339 340 342 341 344 345 343
341 342 341 339 340 341 341 341 343 341 339 339 342 344 345 345 342 338 339 337 333 332 341 346 345 347 346 346 344 343 343 343 346 347 344 339 340 338 341 346 349 346 343
339 341 340 340 340 340 341 340 341 337 339 342 343 344 343 343 342 341 341 342 342 343 344 346 347 347 347 342 343 343 342 342 344 345 342 340 342 343 341 343 345 344 342
339 339 338 338 338 337 338 337 337 337 340 343 344 344 343 344 345 343 342 342 338 339 345 346 348 347 344 343 343 343 343 343 342 343 344 343 341 343 341 340 339 340 339
339 338 337 336 336 336 337 337 336 338 340 341 344 344 344 345 344 341 343 342 341 343 347 349 347 348 344 342 339 342 343 342 343 343 343 342 343 341 341 337 339 340 340
337 338 337 336 336 336 337 336 338 342 343 343 344 343 345 344 344 342 343 340 341 347 348 348 344 342 345 345 339 341 340 341 339 342 339 344 344 339 342 338 340 340 341
334 335 335 335 335 336 335 338 341 342 344 343 343 343 343 342 342 340 340 345 346 348 349 349 349 350 351 350 343 345 344 341 340 342 345 345 345 341 341 343 339 341 343
333 333 333 333 333 334 337 341 343 344 343 343 343 342 342 343 337 334 342 348 343 345 347 345 345 347 350 348 345 344 339 340 340 341 344 346 345 344 341 343 344 342 344
333 332 332 331 331 335 341 343 344 344 343 345 344 343 344 343 340 345 347 348 347 346 346 347 345 344 350 350 347 346 342 344 345 347 346 345 347 346 344 342 343 344 344
338 334 332 332 332 333 340 343 344 343 344 343 344 345 345 342 342 346 346 346 348 347 346 346 349 348 349 348 350 341 344 343 344 347 347 347 348 348 347 345 346 340 341
341 340 338 338 336 336 342 344 343 341 340 342 344 344 343 343 343 345 346 345 347 348 346 346 350 351 349 350 350 345 347 349 341 343 344 345 345 345 345 346 347 344 347
342 342 342 341 342 339 341 343 343 342 343 342 343 344 344 343 346 346 347 348 348 346 345 346 350 350 351 349 348 349 348 348 348 351 346 345 344 345 344 346 347 347 348
341 341 342 342 342 341 340 342 344 343 343 343 344 345 345 344 346 346 347 348 348 350 348 346 347 353 351 351 349 349 349 348 347 346 351 346 346 346 346 348 344 346 349
341 341 342 342 343 343 342 341 343 344 343 344 344 345 345 346 345 343 347 347 348 350 350 348 345 352 352 351 349 349 349 348 347 344 346 345 345 348 347 347 346 342 346
Wind_Speed
14 15 15 14 13 13 13 13 14 15 16 17 18 18 16 14 12 13 13 12 10 10 10 9 11 10 9 7 6 6 5 6 7 8 9 10 12 10 8 8 7 8 9
19 15 14 14 13 14 13 13 13 13 14 14 14 14 13 12 11 11 12 11 12 11 10 11 12 10 10 10 9 8 7 7 7 8 6 6 5 7 7 6 6 7 8
18 16 15 14 13 13 13 13 13 12 13 13 12 12 12 11 10 11 11 12 12 11 11 10 11 11 10 9 8 8 8 8 6 6 6 5 6 4 4 3 5 7 7
18 15 15 15 14 13 13 12 12 12 12 12 11 11 11 10 11 12 12 13 12 11 11 11 11 9 8 9 8 7 7 9 6 5 2 2 4 3 3 3 4 5 7
15 14 14 14 14 14 13 12 11 11 11 11 11 11 10 10 11 12 12 11 13 12 11 11 10 9 9 9 7 6 4 4 3 1 2 1 2 3 4 2 2 3 4
14 13 12 12 12 13 13 13 12 11 10 11 10 11 10 11 11 12 14 11 11 12 11 10 9 7 7 6 5 3 0 1 2 2 10 8 3 6 2 4 4 1 4
13 12 10 9 10 12 12 12 13 11 11 11 11 11 10 11 12 12 12 11 10 12 10 9 7 5 4 2 1 2 3 3 2 5 7 9 9 3 3 5 5 3 3
12 11 10 11 8 10 12 12 12 11 11 11 10 10 11 10 11 12 11 11 10 9 7 6 5 3 3 3 4 5 5 5 5 9 10 5 7 6 4 7 4 4 2
12 11 11 13 11 7 9 12 12 12 12 11 11 11 11 12 11 10 10 9 8 7 5 4 3 1 1 4 7 5 6 7 7 10 7 5 5 9 9 7 5 7 4
11 10 11 12 10 10 9 11 12 10 10 11 10 10 10 11 10 9 9 8 7 5 3 2 2 1 2 4 5 4 6 6 9 6 5 2 2 4 4 6 5 7 6
10 10 10 10 10 11 11 12 13 15 8 10 9 10 9 11 10 8 7 7 6 4 2 2 3 3 4 6 7 6 6 7 6 5 3 1 2 7 6 4 5 6 7
10 9 8 8 9 10 11 12 16 17 13 12 9 9 9 9 9 7 6 5 4 3 1 1 3 5 6 7 8 8 9 10 10 6 5 2 3 3 4 4 4 6 8
12 10 9 9 9 9 10 12 14 14 12 10 7 9 9 9 7 5 4 3 3 2 2 1 3 6 9 8 13 12 10 10 11 8 4 4 4 2 2 2 2 5 8
13 12 10 11 10 10 10 10 12 12 10 7 7 7 6 5 4 4 3 3 3 3 3 3 5 8 8 7 8 7 8 8 6 3 2 2 5 3 2 2 2 3 4
12 15 13 11 10 9 9 9 9 8 7 7 5 4 3 2 2 2 2 2 2 1 2 4 7 6 6 5 8 8 9 6 3 2 2 1 2 3 3 1 2 3 4
14 18 16 13 11 9 8 8 6 6 5 6 4 2 3 3 2 2 2 2 5 2 2 7 6 5 6 7 7 6 6 4 1 2 4 4 4 3 2 3 4 5 5
17 19 18 16 12 10 10 9 7 6 5 3 2 2 2 1 1 0 1 2 4 3 5 7 6 6 6 7 6 5 4 3 1 1 5 4 2 3 4 6 6 5 4
18 21 19 16 15 13 13 9 7 5 4 5 3 4 3 2 2 2 2 1 1 4 5 2 7 3 7 9 8 4 5 6 8 7 8 3 3 4 7 7 7 5 4
19 21 21 18 15 15 13 9 5 6 5 5 6 6 5 5 5 3 1 1 2 2 4 5 6 6 8 7 8 6 6 4 2 2 4 3 4 5 5 7 7 6 5
20 20 21 20 17 13 12 9 8 8 5 5 6 8 5 5 3 7 2 2 2 2 2 5 7 7 6 7 7 6 6 4 3 5 5 4 5 6 3 6 6 7 7
22 22 22 21 19 16 12 12 9 8 5 5 6 6 5 5 6 4 2 1 1 1 3 5 7 6 4 7 6 5 6 5 5 7 4 3 3 6 4 3 5 6 6
26 26 25 24 22 20 17 14 8 7 4 5 6 7 7 7 7 5 3 2 1 2 4 6 6 5 3 6 4 2 3 3 3 6 4 2 2 5 4 5 4 6 4
27 28 28 26 24 21 18 15 12 7 7 9 8 7 10 9 9 8 9 6 5 5 5 6 6 5 3 4 4 2 1 1 4 3 2 2 2 5 5 7 4 4 3
33 30 29 27 24 22 21 20 18 14 10 11 8 9 13 11 8 8 9 8 7 9 10 7 7 5 3 2 0 4 2 2 1 3 2 2 2 2 2 3 6 5 4
29 31 33 30 27 24 24 22 23 18 12 11 8 8 11 12 10 9 8 9 7 8 8 8 7 5 4 3 3 3 2 2 2 2 2 4 3 1 2 3 6 3 6
26 27 29 32 30 27 27 25 25 22 17 13 11 10 13 14 13 10 12 12 9 8 9 11 9 6 5 4 3 2 1 1 2 1 0 1 3 3 3 4 7 7 6
Wind_Direction
176 164 163 162 158 149 142 137 131 128 127 127 133 139 142 143 136 127 122 122 125 126 120 125 135 117 114 116 120 107 106 109 92 82 82 88 99 95 94 94 115 135 139
160 160 166 160 159 156 148 142 137 135 129 130 133 137 139 140 135 126 120 126 125 120 120 115 118 115 106 97 102 106 95 80 79 77 75 84 80 97 95 99 114 130 152
155 159 162 163 157 163 156 149 143 138 136 136 142 140 136 134 132 132 124 126 123 118 115 112 108 103 104 108 102 102 99 89 76 68 57 85 101 94 83 113 132 137 142
158 161 166 165 162 165 165 157 154 147 148 143 143 146 143 134 130 128 136 130 120 119 116 113 108 112 113 106 105 112 110 102 93 83 51 124 109 93 133 137 146 146 154
157 161 167 168 166 168 165 161 155 151 151 148 154 146 145 133 129 135 134 127 125 117 112 105 111 110 110 107 104 103 108 105 91 10 323 318 92 342 296 329 155 176 171
156 161 165 168 169 169 166 165 158 144 142 145 149 143 137 139 141 137 126 128 124 109 106 101 99 107 113 113 110 102 22 35 22 304 289 274 229 36 329 341 314 284 192
156 158 171 177 184 180 168 161 151 144 140 142 143 138 131 138 142 131 131 132 123 111 109 109 110 109 102 121 162 219 227 253 309 301 262 267 246 261 73 297 299 290 201
169 166 172 170 218 186 168 160 145 143 142 140 139 130 138 130 132 124 130 127 115 112 109 103 94 93 121 166 207 247 265 283 306 302 286 233 220 217 205 292 261 294 275
171 175 175 189 205 183 170 152 146 143 139 142 137 134 130 130 131 129 125 122 120 108 109 93 64 69 178 208 215 240 278 293 313 311 299 241 214 196 201 242 260 265 296
169 170 172 178 186 170 165 148 142 133 145 143 129 126 125 123 126 135 145 137 119 120 120 80 13 353 276 262 265 277 274 304 312 310 319 326 303 266 238 258 254 275 265
165 165 166 173 169 167 157 147 145 153 157 146 130 131 137 137 144 146 149 135 134 128 65 9 342 283 271 264 266 273 277 283 320 301 2 352 203 284 252 264 275 273 264
175 171 166 158 156 153 148 153 161 171 177 155 139 138 142 148 157 163 156 148 137 138 148 326 313 306 295 280 263 279 283 279 274 304 352 26 253 283 237 307 276 259 261
183 178 170 166 155 151 152 163 171 172 159 148 141 138 143 149 154 156 163 151 151 159 127 29 330 308 295 269 276 289 285 282 267 252 325 354 27 97 188 305 271 258 254
187 179 168 165 162 162 162 157 157 156 155 147 150 146 147 143 152 160 150 145 140 132 90 16 332 304 305 315 306 304 316 301 273 262 318 351 11 0 313 304 297 255 237
180 176 172 166 167 164 160 156 159 152 153 153 153 145 164 174 184 172 150 110 61 72 39 28 348 334 325 307 302 323 321 306 312 349 64 177 307 327 281 248 99 192 208
177 176 175 180 180 165 162 159 165 174 171 164 163 157 197 214 264 192 143 45 3 50 58 349 323 305 326 308 289 304 333 10 143 84 58 334 264 258 266 140 149 171 182
182 181 188 186 182 173 166 179 171 178 175 187 210 174 225 244 165 168 213 354 15 46 353 337 327 296 329 331 315 319 354 58 127 234 321 340 139 161 164 137 144 139 172
182 186 191 194 195 175 172 188 187 198 226 232 217 207 231 303 264 283 267 291 80 12 352 28 14 42 340 340 313 326 341 288 278 258 298 272 145 159 163 146 158 160 186
191 186 192 198 200 197 204 204 193 223 247 241 235 234 245 265 263 236 154 129 116 42 40 34 19 4 356 341 325 333 328 309 0 321 256 205 177 179 167 171 180 186 196
201 198 196 194 199 199 209 214 212 206 221 217 226 232 228 250 202 154 128 81 76 38 23 15 358 354 359 351 329 342 9 45 304 283 255 228 201 185 172 194 194 205 208
210 208 207 205 203 203 213 215 207 209 201 197 196 190 232 236 208 177 165 65 41 9 0 12 353 342 359 357 359 347 43 33 1 302 256 216 208 193 188 221 216 218 221
212 212 214 215 217 217 215 216 201 213 220 204 228 245 237 220 219 223 242 257 236 314 344 349 343 330 337 354 4 13 18 351 34 56 80 93 156 180 220 229 247 209 207
214 216 216 217 220 221 217 218 217 209 224 211 230 234 213 225 238 248 248 252 265 295 320 344 317 324 332 358 11 70 64 342 334 329 310 280 274 239 272 227 227 205 194
219 220 219 218 218 221 218 217 213 207 202 212 226 234 209 218 235 252 250 260 278 284 300 301 304 301 303 340 72 80 57 305 146 333 323 327 311 298 185 203 235 235 213
214 219 222 220 219 219 221 223 222 220 218 213 222 217 205 222 242 256 253 255 273 273 287 301 279 281 290 328 353 43 45 26 211 210 295 337 16 318 220 229 191 229 219
214 215 219 220 220 221 222 223 225 225 217 205 211 221 225 230 236 258 245 249 258 276 282 304 264 269 276 272 295 351 330 306 242 207 274 337 312 313 248 240 243 230 214